[Iaude] MPEC B25: 2024 BE [a=1.94,e=0.52,i=8.4,H=24.1]
    mpec at marsden.cfa.harvard.edu 
    mpec at marsden.cfa.harvard.edu
       
    Wed Jan 17 20:10:02 EST 2024
    
    
  
M.P.E.C. 2024-B25                              Issued 2024 January 18, 01:08 UT
     The Minor Planet Electronic Circulars contain information on unusual
         minor planets, routine data on comets and natural satellites,
         and occasional editorial announcements.  They are published
    on behalf of Division F of the International Astronomical Union by the
          Minor Planet Center, Smithsonian Astrophysical Observatory,
                          Cambridge, MA 02138, U.S.A.
			  
             Prepared using the Tamkin Foundation Computer Network
                              MPC at CFA.HARVARD.EDU
            URL https://www.minorplanetcenter.net/    ISSN 1523-6714
                                    2024 BE                                     
Observations:
     K24B00E*1C2024 01 16.24311205 47 32.917-19 28 46.63         19.82GVEB025G96
     K24B00E 1C2024 01 16.24873605 47 37.684-19 27 30.96         19.72GVEB025G96
     K24B00E 1C2024 01 16.25435705 47 42.479-19 26 14.86         19.91GVEB025G96
     K24B00E 1C2024 01 16.25998505 47 47.270-19 24 59.00         19.87GVEB025G96
     K24B00E KC2024 01 16.28292205 48 06.772-19 19 49.33         19.87GVEB025V06
     K24B00E KC2024 01 16.28399705 48 07.700-19 19 35.00         19.95GVEB025V06
     K24B00E KC2024 01 16.28507405 48 08.597-19 19 20.14         19.92GVEB025V06
     K24B00E KC2024 01 16.28615205 48 09.515-19 19 05.92         19.92GVEB025V06
     K24B00E KC2024 01 16.30791305 48 28.062-19 14 11.54         19.42GVEB025V06
     K24B00E KC2024 01 16.30899005 48 28.969-19 13 56.93         20.23GVEB025V06
     K24B00E KC2024 01 16.31006705 48 29.898-19 13 42.38         20.01GVEB025V06
     K24B00E KC2024 01 16.31114505 48 30.809-19 13 27.55         20.25GVEB025V06
     K24B00E  C2024 01 16.31242105 48 28.48 -19 10 53.1                WEB025X09
     K24B00E  C2024 01 16.32289305 48 37.70 -19 08 31.1                WEB025X09
     K24B00E KC2024 01 17.12935806 00 22.24 -16 11 40.5          20.2 GVEB025H21
     K24B00E KC2024 01 17.13215206 00 24.47 -16 11 03.8          20.3 GVEB025H21
     K24B00E KC2024 01 17.13494706 00 26.71 -16 10 27.3          20.3 GVEB025H21
     K24B00E  C2024 01 17.18038006 01 06.126-16 00 18.78         19.9 GVEB025654
     K24B00E  C2024 01 17.18439006 01 09.322-15 59 26.34         19.9 GVEB025654
     K24B00E KC2024 01 17.19057306 01 13.480-15 58 03.50         20.53GVEB025V06
     K24B00E KC2024 01 17.19104706 01 13.847-15 57 57.17         20.24GVEB025V06
     K24B00E KC2024 01 17.19151806 01 14.236-15 57 51.05         19.78GVEB025V06
     K24B00E KC2024 01 17.19198906 01 14.596-15 57 44.86         19.88GVEB025V06
     K24B00E KC2024 01 17.90074406 10 45.410-13 24 12.35         19.8 GVEB025J95
     K24B00E KC2024 01 17.90877006 10 51.492-13 22 30.22         19.4 GVEB025J95
Observer details:
654 Table Mountain Observatory, Wrightwood-PHMC.  Observers N. Evans, P. Choi,
    N. Saini, C. Zhai, R. Trahan, M. Shao.  1.0-m Reflector + CCD.
G96 Mt. Lemmon Survey.  Observer J. K. Hogan.  Measurers T. Beuden, V. F.
    Carvajal, D. Fay, J. B. Fazekas, D. C. Fuls, A. R. Gibbs, A. D. Grauer, H.
    Groeller, J. K. Hogan, R. A. Kowalski, S. M. Larson, G. J. Leonard, D.
    Rankin, R. L. Seaman, F. C. Shelly, K. W. Wierzchos.  1.5-m reflector +
    10K CCD.
H21 Astronomical Research Observatory, Westfield.  Observer R. Holmes.
    Measurers T. Linder, R. Holmes, L. Horn.  0.76-m f/3.0 astrograph + CCD.
J95 Great Shefford.  Observer P. Birtwhistle.  0.41-m f/6.3 Schmidt-Cassegrain
    + CCD.
V06 Catalina Sky Survey-Kuiper.  Observer G. J. Leonard.  Measurers T. Beuden,
    V. F. Carvajal, D. Fay, J. B. Fazekas, D. C. Fuls, A. R. Gibbs, A. D.
    Grauer, H. Groeller, J. K. Hogan, R. A. Kowalski, S. M. Larson, G. J.
    Leonard, D. Rankin, R. L. Seaman, F. C. Shelly, K. W. Wierzchos.  1.55-m
    reflector + 1K CCD.
X09 Deep Random Survey, Rio Hurtado.  Observers A. Schnabel, D. Ruhela.
    Measurer S. Deen.  0.43-m reflector + CMOS.
Orbital elements:
2024 BE                                                  Earth MOID = 0.0643 AU
Epoch 2023 Sept. 13.0 TT = JDT 2460200.5                Veres                   
M 327.23943              (2000.0)            P               Q                  
n   0.36418581     Peri.  296.17011     +0.35017102     -0.93060062             
a   1.9420215      Node   132.90344     +0.90294925     +0.30509898             
e   0.5209856      Incl.    8.36759     +0.24912427     +0.20223030             
P   2.71           H   24.11          G   0.15           U   9                  
Residuals in seconds of arc
240116 G96  0.2+  0.1-    240116 V06  0.2-  0.3-    240117 654  0.2+  0.3-
240116 G96  0.1-  0.2-    240116 V06  0.0   0.3-    240117 V06  0.0   0.1-
240116 G96  0.0   0.2+    240116 V06  0.1-  0.1-    240117 V06  0.1-  0.1+
240116 G96  0.0   0.1+    240116 X09  1.1-  1.8+    240117 V06  0.1+  0.0
240116 V06  0.1-  0.0     240116 X09  0.6-  1.0+    240117 V06  0.0   0.0
240116 V06  0.1+  0.2-    240117 H21  0.1-  0.3+    240117 J95  0.2-  0.3+
240116 V06  0.2-  0.1+    240117 H21  0.1-  0.2+    240117 J95  0.4+  0.5-
240116 V06  0.2-  0.2-    240117 H21  0.1+  0.1-
240116 V06  0.0   0.3-    240117 654  0.1-  0.1-
Ephemeris:
2024 BE                  a,e,i = 1.94, 0.52, 8                   q = 0.9303
Date    TT    R. A. (2000) Decl.     Delta      r    Elong.  Phase     V
2023 12 19    23 18 40.5 -47 07 30   0.1770  0.9347    68.8   101.0    23.9
...
2024 01 03    01 41 19.3 -49 02 03   0.1004  0.9720    80.6    93.5    22.4
...
2024 01 11    04 14 20.4 -37 32 36   0.07402 1.0056   105.3    70.6    20.9
...
2024 01 17    05 58 31.3 -16 38 47   0.07402 1.0358   133.2    43.8    20.2
2024 01 18    06 12 01.0 -13 01 27   0.07608 1.0412   137.6    39.6    20.2
2024 01 19    06 24 24.9 -09 33 34   0.07868 1.0468   141.7    35.6    20.1
...
2024 01 25    07 19 46.6 +06 35 36   0.1032  1.0817   159.6    18.5    20.3
...
2024 02 02    08 01 23.5 +17 51 04   0.1510  1.1326   166.3    11.9    21.0
...
2024 02 17    08 39 45.6 +25 30 36   0.2656  1.2371   157.2    18.0    22.6
M. P. C. Staff               (C) Copyright 2024 MPC           M.P.E.C. 2024-B25
    
    
More information about the Iaude
mailing list